Theta_e
329 327 325 332 331 323 312 311 296 300 298 290 289 289 290 297 297 296 296 298 296 301 302 304 304 305 302 302 307 310 313 304 306 298 300 317 332 339 339 340 342 343 344 344 345 346 346 348 350 350 350 350 349 350 350 349 349 348 348 349 348 347 347 347 346 347 346 346 344 343 342 342 342 342 341 341 340 338 338 338 341 347 346 346 346 347 345 343 342 342 340 338 339 340 340 340 340
325 320 320 321 319 314 306 307 297 293 289 287 290 290 294 296 296 293 297 299 300 301 301 301 303 303 304 312 312 312 311 316 318 316 325 332 336 338 340 341 342 342 343 344 345 345 345 346 349 350 350 349 349 349 350 349 348 348 349 349 348 347 347 346 346 346 346 345 344 343 341 342 342 342 341 340 339 338 340 344 344 345 345 345 345 345 343 342 341 341 339 338 339 339 339 340 340
324 320 319 318 315 312 309 306 295 289 287 285 288 291 296 296 296 298 299 300 301 302 302 302 302 303 303 303 304 306 302 321 325 326 327 334 331 334 340 341 343 344 343 344 345 345 345 346 347 350 350 349 349 349 349 349 348 348 348 348 347 347 346 346 346 346 345 345 343 343 342 342 342 341 340 339 338 338 339 338 342 343 342 343 343 344 344 343 342 341 338 338 338 339 339 340 340
324 322 317 315 308 309 302 298 292 289 287 285 288 292 294 296 297 299 300 300 301 301 302 304 302 305 305 303 308 315 311 315 323 326 326 329 329 335 337 341 343 343 343 344 345 345 344 345 347 350 350 350 349 349 349 349 348 348 348 348 347 347 346 346 345 345 345 344 343 343 342 342 341 341 340 339 338 339 345 345 344 343 342 342 343 344 344 343 341 341 338 337 339 339 339 339 340
319 322 321 313 308 305 301 298 292 287 287 286 286 292 297 297 297 298 300 300 301 301 303 304 301 304 307 305 306 306 309 319 322 326 325 328 334 334 336 341 342 342 341 344 345 345 343 344 347 348 350 350 350 349 349 348 348 348 348 347 347 346 346 345 345 345 345 344 342 342 341 341 341 340 339 339 338 342 344 344 344 344 344 344 343 343 342 342 339 339 336 336 339 339 339 339 340
322 319 320 314 306 307 300 290 290 288 292 291 290 294 296 299 299 298 300 301 302 300 302 301 302 301 306 309 313 306 315 313 323 326 327 328 334 335 338 339 341 341 342 345 345 344 343 342 346 347 350 349 350 349 348 348 348 348 347 347 346 346 345 345 345 345 345 344 342 343 343 341 340 340 339 338 338 338 339 344 344 343 342 341 342 342 341 341 340 338 336 336 338 339 338 338 338
316 312 312 309 307 306 295 291 290 289 293 293 292 296 298 298 299 299 299 299 301 301 301 302 301 305 303 310 314 319 325 321 326 326 329 330 334 337 338 338 340 341 344 344 344 344 343 343 348 350 349 349 349 348 348 348 347 347 347 346 346 345 345 345 345 345 345 344 343 342 342 341 340 339 338 338 337 338 338 338 338 339 339 339 339 339 339 339 338 336 335 337 338 338 337 336 337
318 310 309 301 298 297 293 291 291 289 294 296 297 298 298 300 299 298 297 296 298 297 301 301 301 300 302 308 307 316 327 329 328 330 331 332 335 336 337 337 338 341 343 344 344 343 345 342 347 347 348 349 348 348 348 348 347 347 346 346 346 346 345 345 345 344 344 342 342 342 342 341 341 339 338 338 338 338 337 336 336 336 336 335 335 335 336 335 336 336 336 336 337 336 335 336 336
312 311 308 299 296 295 290 290 291 293 294 296 297 301 306 301 300 298 297 298 299 299 299 301 300 296 298 307 308 317 323 328 330 331 331 333 334 336 337 336 337 340 343 343 343 343 343 342 345 347 347 348 349 348 348 347 347 346 346 346 346 346 346 345 344 344 343 343 342 342 341 340 339 339 338 337 337 337 337 337 336 335 335 335 334 335 335 334 335 335 335 336 336 335 335 336 336
307 307 299 298 297 293 291 290 288 293 293 296 297 299 300 299 298 299 297 297 298 299 301 300 300 298 302 304 310 315 319 327 329 329 331 332 333 334 335 336 340 342 341 342 342 342 342 345 341 343 345 347 348 348 348 347 347 347 347 346 346 346 345 344 344 343 343 342 341 341 341 340 340 339 339 338 337 337 336 336 336 336 335 334 334 333 333 333 334 334 334 336 335 335 335 336 336
300 306 305 297 290 290 289 291 291 295 295 297 298 299 299 297 298 297 297 298 299 300 301 300 300 298 305 307 308 315 324 327 328 327 329 332 332 333 333 338 341 343 341 341 341 341 341 341 341 340 344 344 346 347 347 347 347 347 346 347 346 345 345 344 344 343 343 343 340 340 341 340 340 339 338 338 338 337 337 336 336 334 334 333 333 332 332 332 333 333 334 334 334 335 335 335 336
301 299 300 292 291 292 290 289 292 293 295 296 297 300 300 299 298 296 297 297 299 299 299 300 298 299 305 304 306 318 323 325 326 328 331 331 331 332 334 337 340 342 342 341 340 340 338 338 339 340 336 337 342 345 345 346 346 347 347 347 347 345 345 344 343 343 343 343 341 339 340 340 339 339 339 338 337 337 337 335 333 333 333 333 333 333 332 333 332 332 333 333 334 334 334 335 335
304 299 294 293 288 291 290 290 291 292 293 294 295 300 298 299 298 297 296 297 297 298 300 300 304 300 300 304 307 317 321 322 326 327 330 330 330 330 334 337 340 342 342 340 340 339 337 337 338 339 335 332 335 338 341 342 344 346 346 347 346 346 346 345 344 343 343 343 341 339 339 338 338 338 338 337 336 336 335 332 331 332 334 333 334 333 333 333 331 331 332 333 333 333 333 333 333
304 305 296 293 292 294 290 291 290 290 290 293 297 299 300 299 299 297 296 295 295 297 301 301 302 303 304 306 310 312 314 324 326 327 327 328 330 332 332 335 335 339 340 340 339 339 338 337 337 336 334 338 336 334 334 339 342 344 345 344 345 345 345 345 344 343 343 343 341 339 338 338 337 337 337 336 336 334 333 333 331 333 334 334 333 333 332 331 330 331 333 332 331 331 330 331 331
304 305 298 295 291 291 292 291 292 288 291 295 298 299 300 301 298 296 296 295 299 301 303 304 302 298 294 302 302 310 317 325 327 325 326 328 330 329 329 331 334 336 338 340 340 339 339 338 338 336 337 338 337 337 338 339 336 340 342 342 343 343 343 343 343 341 340 341 339 337 336 335 333 334 335 336 335 334 332 331 332 332 334 334 333 332 331 330 330 332 332 330 329 329 330 330 329
307 304 296 295 289 291 290 291 291 290 293 295 298 297 297 300 300 298 300 298 300 304 302 301 302 299 303 301 303 313 324 325 325 325 326 325 325 326 327 329 331 334 337 337 338 339 339 338 337 337 338 338 337 337 337 337 333 333 337 339 340 341 341 341 339 337 335 335 334 332 329 328 327 327 327 329 330 333 330 328 330 331 333 334 333 332 331 330 331 331 329 327 326 326 327 328 327
306 301 296 289 288 290 291 292 292 289 292 295 298 298 297 297 300 300 301 300 300 301 299 301 301 303 305 312 316 323 324 324 323 324 324 322 323 321 322 324 327 330 336 336 335 336 337 337 338 338 338 338 338 338 338 337 335 331 333 332 334 338 338 337 337 330 327 326 326 323 325 328 326 326 326 325 323 325 323 325 329 331 332 332 332 331 331 331 330 329 327 325 324 322 321 321 323
302 296 291 291 288 291 293 294 292 294 295 295 296 296 296 295 298 300 301 298 298 299 299 301 307 312 319 320 322 323 324 324 323 323 321 320 319 319 321 321 326 330 332 334 336 336 336 335 337 338 338 338 339 339 339 339 335 334 337 336 336 332 330 329 332 333 331 329 323 327 328 326 326 325 324 326 323 324 324 323 327 330 331 331 331 331 331 329 328 328 327 325 324 321 317 310 312
299 294 291 288 290 294 296 296 296 295 295 296 296 295 297 296 297 299 297 295 297 297 299 299 301 310 319 319 320 321 322 322 321 321 320 319 319 320 321 321 325 329 331 333 335 337 336 334 334 336 338 338 338 338 339 338 336 338 337 336 336 330 331 332 335 333 332 330 330 330 326 327 326 324 323 324 324 321 323 323 326 328 330 330 330 329 329 328 327 326 326 325 320 316 308 307 307
299 295 291 288 295 296 296 297 297 297 297 297 296 296 297 298 297 299 296 293 295 294 295 296 298 303 314 316 317 319 320 320 320 320 319 319 319 320 320 322 324 327 330 331 333 334 334 333 334 335 337 339 338 338 338 338 337 338 337 337 335 335 333 334 337 336 334 331 332 331 328 327 326 324 324 322 322 322 322 322 324 324 326 326 326 326 326 326 326 326 324 319 313 308 305 305 305
298 294 292 295 295 295 296 297 296 296 297 296 296 296 296 297 298 297 294 294 293 294 296 298 298 301 311 316 316 316 318 319 319 318 318 318 319 321 322 323 326 327 329 328 329 332 332 333 334 333 334 335 337 337 338 337 337 339 338 337 337 336 334 336 338 338 335 333 333 332 330 328 326 323 321 321 322 321 321 320 320 319 320 319 319 317 317 318 317 311 309 308 306 305 304 303 303
298 295 294 296 295 294 297 298 296 295 296 296 294 296 296 299 298 297 295 292 289 294 298 299 300 303 308 315 315 315 316 317 318 317 318 319 319 320 322 322 322 321 324 327 328 329 331 333 334 334 334 334 335 336 338 337 337 338 337 337 337 337 336 336 337 338 337 335 334 332 332 330 325 323 321 321 320 320 319 318 318 318 317 316 316 315 315 315 314 310 307 306 304 304 302 302 302
296 294 295 294 296 295 298 297 296 294 296 295 295 298 298 297 297 297 295 294 295 299 300 300 300 303 307 316 315 314 314 315 317 317 318 318 319 320 322 323 324 323 322 326 328 329 331 331 333 333 334 334 334 336 337 336 337 337 336 336 336 337 337 336 336 336 337 336 335 332 333 330 326 323 321 320 319 319 318 317 317 316 315 315 315 315 314 315 311 308 306 305 304 303 301 300 300
293 293 294 296 296 297 296 297 295 294 295 297 297 298 297 297 296 297 297 297 296 299 300 301 302 303 307 311 313 313 314 315 316 318 319 320 320 321 321 323 324 324 322 322 325 327 328 331 332 332 334 334 334 336 337 336 336 336 335 334 336 335 336 336 336 335 335 336 336 333 332 331 327 324 322 320 319 318 317 317 317 315 314 314 315 316 316 313 311 308 307 305 304 303 301 299 299
294 294 296 297 296 297 296 294 295 296 297 296 297 297 297 295 295 296 296 298 297 299 299 302 303 304 306 310 311 310 313 314 315 316 317 317 318 320 318 320 323 323 323 323 323 324 327 330 330 331 331 334 335 336 335 336 337 336 334 335 336 332 337 336 335 334 333 334 335 333 332 332 329 326 323 321 320 318 318 317 316 315 314 314 315 317 315 312 310 308 306 305 303 301 299 297 297
295 295 295 296 296 297 296 296 296 296 299 296 297 295 294 296 297 297 298 297 298 298 298 301 303 303 304 306 308 307 310 313 314 315 317 318 317 318 319 318 321 323 324 325 323 323 326 329 329 330 330 331 333 334 332 334 335 335 334 335 336 333 337 337 335 334 334 334 334 332 333 333 330 327 325 322 320 318 318 317 317 316 315 314 315 316 314 312 309 307 306 304 302 299 298 297 296
297 295 296 296 296 296 297 297 297 297 298 296 296 294 295 297 297 292 294 298 298 298 298 298 301 302 303 304 306 306 308 311 312 315 314 314 316 318 319 320 318 323 324 324 323 323 324 326 326 329 330 328 330 331 330 331 333 334 332 334 334 334 337 337 335 335 335 334 333 334 333 333 332 330 328 323 320 319 319 318 317 317 316 316 318 315 313 312 310 308 307 304 300 298 297 297 296
297 296 295 295 296 297 297 296 296 296 297 296 296 295 295 296 296 295 297 300 298 299 298 298 297 298 300 303 304 305 306 308 311 311 312 313 315 317 318 320 319 320 323 323 324 324 324 326 326 327 328 328 328 330 329 329 330 332 331 332 332 333 333 335 335 335 333 335 333 334 333 333 331 331 330 326 323 321 321 319 318 318 317 319 319 315 312 311 310 309 307 306 305 299 297 297 296
296 296 293 294 295 297 296 295 296 297 296 298 298 294 292 294 293 299 297 298 297 298 298 298 298 298 298 298 301 302 305 305 307 310 312 314 315 317 318 322 322 319 323 325 324 322 324 325 325 326 327 326 327 329 329 329 327 328 329 330 331 331 331 332 333 334 334 334 334 333 333 333 331 331 331 329 324 324 324 321 320 319 319 320 317 315 313 311 309 307 305 304 301 298 297 296 297
299 296 292 293 292 289 295 296 295 296 297 297 296 285 285 289 296 299 297 299 298 297 297 297 297 297 298 298 298 298 300 301 304 309 311 312 313 315 316 320 322 322 320 322 323 322 324 325 325 326 326 326 325 327 327 327 327 325 327 329 329 330 330 330 331 334 334 334 333 334 334 333 332 332 331 330 328 326 326 322 321 321 320 319 316 313 311 309 307 305 303 302 300 298 296 295 294
292 295 292 288 286 287 293 296 295 295 297 296 295 286 286 291 294 296 297 299 299 297 296 296 297 297 297 298 298 299 300 300 304 307 310 311 313 314 315 317 320 322 318 320 322 323 322 324 324 326 324 326 324 324 323 325 324 324 323 328 328 329 328 329 330 332 333 334 333 333 333 332 332 332 331 330 329 328 327 324 322 321 320 317 315 313 310 308 306 303 302 300 299 300 296 295 294
293 288 284 285 287 286 294 297 295 293 296 297 294 286 290 293 295 295 298 297 297 296 295 295 296 297 298 298 299 299 300 301 302 304 308 310 312 313 314 315 319 321 319 321 322 322 322 322 322 324 323 324 323 323 321 321 322 322 321 323 327 327 327 327 328 330 331 333 333 331 332 332 331 332 331 330 329 328 327 325 323 321 319 317 315 312 309 307 305 303 301 299 296 296 295 293 293
290 286 284 286 286 287 292 297 296 295 295 297 293 287 289 291 296 297 296 298 296 296 296 295 296 297 298 298 299 300 300 300 302 303 304 308 311 314 315 315 317 320 320 319 320 321 321 320 320 321 321 321 321 320 318 317 319 320 320 322 326 325 325 326 326 327 329 332 333 333 332 331 331 331 331 330 329 327 326 325 323 321 318 316 313 311 309 306 304 302 301 299 297 294 293 292 292
287 288 286 287 287 287 287 291 294 296 294 292 293 291 290 292 294 294 296 297 297 296 296 296 297 297 298 297 298 300 300 301 302 303 304 306 309 313 315 314 316 319 319 318 319 321 321 319 319 320 320 319 319 318 317 316 315 317 317 317 321 324 324 324 324 324 326 329 331 332 333 332 330 331 330 330 328 327 326 324 321 320 317 315 312 310 308 306 304 302 299 298 297 295 293 292 291
284 287 286 286 288 288 288 289 292 296 293 292 290 289 291 294 296 296 297 295 296 296 297 297 297 297 298 298 298 299 300 301 303 304 305 305 306 309 312 313 314 316 318 317 317 319 318 317 316 315 316 315 315 315 314 313 312 311 312 314 317 321 321 321 322 322 323 324 326 328 330 330 329 331 330 328 327 324 324 322 320 318 317 314 311 309 306 305 304 303 299 297 297 295 294 292 291
288 288 285 285 287 286 287 289 294 294 292 291 289 290 291 292 293 295 296 296 296 297 296 296 296 297 297 298 298 299 299 301 303 303 304 305 306 308 309 311 312 313 315 315 315 316 315 314 314 313 313 314 313 313 313 312 311 311 312 310 311 316 318 318 319 321 320 321 319 321 325 326 327 327 328 328 325 323 322 320 319 317 316 314 311 308 306 304 302 300 298 296 295 294 294 293 291
289 289 288 287 287 288 292 292 293 293 291 288 291 290 290 292 293 294 295 296 293 293 295 296 296 297 297 297 298 299 299 300 302 302 303 304 306 307 308 309 310 311 312 313 313 314 314 314 313 312 313 313 313 313 312 313 312 310 309 313 315 314 315 316 317 317 318 319 318 317 321 323 322 322 322 323 322 319 321 319 318 316 315 313 311 309 307 304 302 300 298 297 295 293 293 292 291
289 287 288 286 289 288 292 292 293 292 290 285 286 287 289 290 292 293 293 292 293 294 294 294 296 297 298 298 298 299 300 299 301 300 301 302 303 305 305 307 307 309 310 311 312 313 314 313 312 313 312 312 314 314 314 313 313 313 313 314 315 312 311 312 314 313 315 315 316 316 315 320 322 319 317 319 318 318 318 317 316 315 314 313 311 309 307 303 301 299 298 296 296 294 292 292 291
288 286 285 286 286 288 292 292 292 293 290 287 285 288 291 292 292 293 292 294 297 296 296 297 296 296 296 296 297 299 298 299 298 299 301 302 303 304 305 306 308 311 310 311 311 311 310 310 311 311 311 312 313 314 313 313 313 311 313 309 314 308 308 307 307 304 307 311 311 313 314 315 319 319 318 317 317 317 317 316 315 315 314 311 309 307 305 302 300 298 297 295 294 295 293 292 290
287 286 284 284 285 289 285 288 290 292 291 287 286 289 292 295 294 294 296 295 296 296 295 296 295 295 296 297 298 299 298 298 298 300 302 302 302 303 303 304 306 307 307 307 309 310 311 310 310 310 310 311 312 311 311 311 309 306 306 307 308 308 306 306 304 302 304 306 308 309 312 314 315 318 317 315 315 316 316 315 315 314 314 312 310 307 304 302 300 298 298 296 294 290 290 290 291
287 287 283 285 289 290 288 290 290 290 289 291 289 288 288 288 289 289 291 292 295 296 295 294 295 296 298 298 297 298 298 297 298 298 301 301 301 303 304 304 304 305 307 308 308 310 312 310 310 310 310 310 310 309 309 308 307 304 302 302 302 302 303 304 303 301 304 305 307 306 310 311 312 313 314 315 315 315 315 315 314 314 313 311 310 307 304 302 301 299 299 297 294 292 289 290 290
285 287 290 288 289 291 292 291 288 282 281 286 289 279 279 283 286 287 290 288 291 291 294 294 295 296 295 296 298 298 298 297 299 299 301 302 303 302 301 301 303 304 305 307 308 309 310 309 309 309 309 310 309 308 309 309 309 308 303 304 303 302 302 303 306 308 304 305 307 305 306 308 310 310 311 313 313 313 314 314 314 313 312 311 309 308 305 303 301 300 299 298 296 295 292 290 290
284 285 293 292 290 289 288 287 284 278 279 287 289 281 279 283 289 291 290 290 291 292 290 294 295 296 295 297 299 297 299 300 298 298 299 300 300 301 301 301 303 303 304 304 305 307 308 308 309 309 309 309 308 308 308 308 307 307 305 306 305 305 305 304 305 307 308 307 305 304 305 304 307 309 309 310 311 311 313 313 313 313 312 311 309 308 305 303 301 300 299 298 297 296 295 291 290
282 288 292 291 290 289 289 286 284 280 282 286 289 285 278 282 288 289 290 289 289 289 292 293 293 294 296 297 296 297 299 298 298 299 299 300 302 302 302 302 302 304 304 303 305 306 306 307 307 308 308 308 307 308 308 308 308 306 305 304 303 303 303 302 303 305 307 305 304 303 303 302 304 306 307 308 309 310 311 311 312 312 311 311 308 308 306 304 302 301 299 299 298 296 294 293 291
286 292 291 290 291 289 287 285 283 284 282 281 279 287 282 278 285 287 288 288 287 289 291 292 293 294 293 293 296 297 297 298 299 300 299 299 300 301 301 301 302 302 302 304 305 306 306 306 306 307 307 307 306 307 307 307 307 306 306 305 303 302 302 301 300 301 304 304 304 302 301 301 301 303 305 306 307 308 308 310 311 311 310 310 307 308 307 305 302 301 299 299 298 296 294 294 292
292 292 292 292 290 289 286 282 286 281 279 278 282 285 278 281 283 287 286 286 287 288 290 291 292 293 293 293 295 298 299 298 299 299 298 298 300 300 301 301 301 302 303 304 304 304 305 305 305 306 306 306 306 306 306 306 306 305 305 305 304 302 301 300 300 299 300 303 304 301 301 299 299 300 302 303 304 306 307 309 309 310 310 309 306 308 306 305 303 302 300 300 300 296 295 295 293
293 291 290 288 286 283 281 281 280 279 275 278 283 286 282 278 281 284 286 286 287 289 288 287 294 297 297 297 297 299 299 298 297 298 298 298 297 298 298 300 301 300 300 302 303 304 304 304 305 305 305 305 305 305 305 305 305 305 306 305 304 303 302 300 299 299 299 300 302 301 300 299 298 298 299 301 302 304 305 307 308 309 309 308 306 307 306 305 303 302 301 300 299 298 296 295 294
292 287 282 281 280 279 278 278 277 275 273 277 283 286 283 276 276 284 287 288 288 289 292 290 295 298 300 298 298 298 298 298 297 296 297 297 298 297 297 298 298 299 299 301 302 303 303 304 304 304 303 303 304 304 304 304 305 304 305 305 304 304 304 302 301 300 300 300 302 301 299 298 297 297 297 299 300 301 303 304 305 308 308 308 307 307 307 305 304 303 302 301 300 298 297 295 294
289 286 284 278 275 276 274 274 275 273 275 280 280 282 282 282 284 289 289 288 290 290 294 295 296 299 299 299 299 298 296 296 296 295 295 295 295 296 296 296 296 298 301 301 303 303 303 303 303 303 302 302 303 303 303 303 303 304 304 304 304 305 305 304 303 303 302 301 302 300 298 297 297 296 296 297 299 299 301 302 304 306 306 307 307 307 307 306 304 303 302 301 300 298 297 296 294
286 286 280 277 273 272 268 269 271 272 276 280 282 284 282 284 286 290 293 295 291 293 293 293 291 297 298 299 298 297 295 296 296 295 294 295 296 297 296 295 297 298 299 302 302 302 302 303 302 303 303 301 302 302 302 302 302 303 303 304 304 304 305 305 305 305 304 303 303 301 298 298 297 297 297 297 299 299 299 301 303 306 307 307 307 307 307 306 304 303 302 301 299 298 297 296 295
289 286 286 281 275 272 269 270 273 274 274 278 280 280 278 277 284 288 290 291 290 293 295 292 292 292 293 292 294 295 295 294 294 294 297 297 297 296 296 296 296 298 299 301 301 301 301 302 301 301 301 300 301 301 301 301 302 301 302 303 304 304 305 305 305 306 305 303 303 302 300 299 298 298 298 298 298 298 299 300 301 303 304 305 305 306 304 305 304 303 302 301 299 297 297 296 295
286 287 285 279 281 276 274 271 272 271 275 275 276 279 279 283 287 290 291 290 293 293 292 291 293 292 292 294 295 294 294 295 294 295 297 298 297 294 295 295 297 297 298 300 300 301 301 302 301 302 302 301 300 300 301 301 301 301 301 302 303 303 304 305 305 304 304 304 303 303 301 300 300 299 299 298 298 298 298 299 299 300 301 301 303 304 303 303 303 302 301 300 297 296 296 295 294
283 287 283 283 283 284 278 275 279 275 272 276 274 280 283 285 287 291 294 294 291 289 290 290 291 293 293 294 293 293 293 293 293 297 298 298 296 295 296 296 297 297 298 300 301 301 302 302 301 301 301 300 300 300 300 300 300 300 300 301 302 302 303 304 305 304 303 303 303 303 302 300 300 300 298 298 297 297 298 299 299 299 299 299 299 300 301 301 301 300 298 296 295 293 294 293 292
286 282 285 289 288 286 281 274 272 273 273 275 276 278 281 277 280 284 286 286 290 289 289 288 290 291 291 294 294 295 294 293 294 296 297 297 296 296 297 297 297 298 298 299 300 301 302 303 302 301 300 300 300 299 299 299 299 299 300 300 301 302 303 303 304 304 302 302 301 301 301 299 299 299 298 297 296 296 297 296 298 299 298 298 298 298 298 298 298 296 296 296 295 293 293 291 290
286 283 289 288 280 279 281 275 272 270 268 271 274 277 280 282 284 286 286 286 289 290 287 288 289 290 291 292 293 292 292 294 297 295 296 297 297 297 297 297 296 296 297 299 300 301 301 301 301 302 301 301 301 300 299 299 299 300 300 300 301 302 303 303 303 303 301 301 300 300 300 300 299 298 296 295 295 295 295 295 296 295 295 296 296 295 295 295 295 294 293 293 291 291 291 289 288
292 291 290 287 282 277 278 280 274 275 270 270 274 277 280 285 284 285 287 285 289 291 290 288 290 291 291 291 291 293 294 295 296 296 295 296 296 296 296 296 296 296 296 297 298 300 300 301 300 300 299 299 299 299 298 298 298 299 299 298 299 301 302 303 302 302 301 301 300 300 300 299 299 297 296 295 294 293 293 292 292 292 292 292 292 292 292 293 293 294 292 292 290 290 290 289 287
286 286 283 286 284 285 280 281 279 276 267 268 270 274 279 285 287 287 286 288 290 289 289 289 289 290 290 291 292 293 295 296 296 295 296 295 294 293 293 293 294 292 294 294 297 299 300 300 300 300 300 299 299 299 299 299 298 297 297 297 298 299 300 301 301 301 300 300 299 298 299 299 297 296 295 293 293 293 292 293 292 292 292 291 291 291 291 291 291 292 291 291 289 289 289 287 286
290 289 287 288 284 280 276 277 281 275 277 272 269 276 282 289 290 291 289 289 289 289 291 292 293 293 294 294 294 294 297 297 296 296 295 296 293 292 291 291 290 291 292 293 296 295 296 298 300 299 299 299 299 299 299 298 297 297 296 296 296 296 298 298 299 300 299 298 297 297 297 296 296 295 294 293 293 292 292 292 292 292 292 291 291 291 290 290 291 290 289 289 288 288 288 286 285
Wind_Speed
7 6 5 3 1 1 2 1 1 2 2 0 1 1 2 0 3 4 3 1 3 1 1 3 3 4 3 4 9 5 2 2 1 2 3 2 3 8 6 10 10 9 8 7 5 5 4 5 10 11 11 11 12 12 12 11 11 11 12 13 13 12 13 14 14 14 15 15 14 14 14 14 14 15 15 16 16 15 14 14 16 18 19 18 18 20 22 21 20 20 19 18 18 18 17 16 16
4 5 4 2 1 2 1 2 2 0 5 4 1 2 3 0 5 4 4 3 2 2 1 4 3 4 9 12 10 7 5 4 1 3 2 1 5 8 9 11 11 10 8 7 6 5 4 6 11 10 11 11 12 12 12 11 11 11 12 13 13 12 13 13 14 15 15 14 14 14 14 14 15 15 14 15 15 14 15 16 16 16 17 17 17 21 21 21 20 20 19 17 17 16 16 16 16
4 6 6 4 1 1 1 1 1 1 4 3 2 1 2 7 5 1 3 5 5 4 4 3 2 2 3 3 4 3 1 1 7 4 3 4 11 8 10 11 9 9 10 7 7 6 5 7 12 11 12 11 12 12 11 11 11 11 12 13 13 13 13 13 14 14 14 14 13 13 14 14 14 14 15 15 15 14 15 14 15 15 17 16 18 19 20 20 20 20 18 17 17 16 16 16 17
3 0 1 2 1 2 0 2 1 3 4 4 1 1 3 6 4 5 3 4 5 5 2 1 2 1 3 8 4 7 5 2 2 6 5 5 4 8 6 10 10 8 7 6 6 6 5 8 12 12 11 12 13 12 11 11 11 11 12 12 13 13 13 13 14 14 14 14 13 14 14 14 14 14 14 14 14 15 16 16 16 16 15 17 18 19 20 20 20 19 18 18 17 17 17 17 17
3 1 3 1 2 0 1 1 2 3 3 3 4 0 5 5 6 4 3 1 1 2 1 2 2 2 1 4 2 2 2 4 3 1 3 3 4 5 5 8 9 9 7 7 7 6 5 9 11 11 12 12 13 12 11 11 12 11 11 12 12 12 13 13 13 14 14 14 13 14 14 14 14 14 14 13 14 16 14 15 16 17 16 17 18 19 19 19 19 19 17 18 17 17 17 17 17
3 3 0 1 1 2 2 3 4 5 1 3 3 4 4 5 8 4 3 2 1 4 2 2 3 3 3 2 1 4 3 4 4 2 2 6 8 6 6 7 9 8 7 7 7 6 5 8 10 11 12 12 13 12 11 11 12 11 11 11 12 12 12 13 13 13 14 13 13 13 14 14 14 14 14 13 13 13 13 16 16 16 17 18 18 18 19 20 19 18 17 18 18 17 17 17 17
2 4 1 2 2 1 3 2 2 2 4 3 4 5 7 4 6 8 4 3 3 3 1 1 3 5 5 0 3 2 1 2 4 3 3 6 6 6 6 6 8 8 9 7 6 6 7 10 9 10 11 11 12 11 10 11 11 11 10 11 11 12 13 13 13 13 13 13 13 13 13 14 14 14 14 13 13 14 14 14 15 15 15 17 17 18 19 19 19 17 18 18 17 16 17 17 17
0 1 1 1 1 2 1 2 1 3 1 2 3 9 5 7 6 5 5 3 2 2 0 1 1 4 1 3 4 2 5 3 5 5 7 6 6 7 5 4 8 8 8 8 7 6 9 11 10 10 11 12 11 11 11 11 11 11 11 11 11 12 12 13 13 13 13 13 13 14 13 14 14 14 13 13 13 14 14 14 14 15 14 15 15 16 17 18 18 17 17 18 16 16 16 17 17
1 1 1 3 1 2 3 2 2 0 1 2 3 6 9 10 6 6 3 2 1 1 2 1 1 5 3 4 3 1 3 2 5 8 7 7 8 7 5 4 6 8 9 8 7 7 6 9 10 10 11 11 12 12 11 12 11 11 11 11 11 11 12 13 13 13 13 13 13 14 14 14 14 13 13 13 14 14 14 15 15 15 15 16 16 16 16 17 17 17 17 17 15 16 17 17 17
1 2 1 1 2 2 0 1 4 1 3 3 7 6 6 5 5 6 5 4 4 3 2 3 1 4 3 5 3 1 3 3 6 6 5 7 7 5 4 1 5 11 9 8 8 7 6 10 10 10 11 11 11 11 12 11 11 11 10 11 11 11 12 12 12 13 13 13 13 13 13 14 14 13 13 14 14 14 15 15 15 15 16 16 15 16 17 16 16 16 17 16 16 16 17 17 17
1 1 1 2 4 1 3 1 3 1 3 0 2 3 6 5 7 5 5 5 4 4 1 2 1 4 4 1 1 2 5 5 8 9 5 6 4 4 3 1 8 13 10 9 8 7 6 6 11 10 10 10 11 11 10 11 11 11 11 10 11 11 12 12 13 13 13 13 13 14 14 14 14 14 14 14 14 15 15 15 15 15 14 15 15 15 16 16 16 16 16 15 16 16 17 18 18
1 0 2 1 1 1 1 6 4 2 2 2 1 0 0 4 4 4 5 6 1 4 4 3 1 4 4 2 0 3 5 5 6 7 6 4 4 3 4 1 7 9 12 10 9 7 6 6 6 8 9 9 10 10 10 9 10 10 9 9 10 11 11 12 13 13 13 13 13 14 14 14 14 14 14 14 14 14 15 15 15 15 14 14 15 16 16 16 16 16 15 15 15 16 18 19 19
1 0 1 2 2 1 2 7 4 4 2 3 5 2 2 3 1 6 5 6 5 5 1 4 1 2 1 1 1 4 7 5 5 5 7 5 3 3 3 5 7 10 9 10 10 8 7 6 6 6 6 9 9 10 9 9 9 10 9 9 9 10 10 10 13 13 13 13 14 14 14 13 13 14 14 14 14 14 15 15 15 16 15 15 15 16 16 16 16 17 16 15 15 17 18 18 19
1 1 3 2 0 0 4 2 2 4 1 2 1 2 2 3 1 4 7 4 3 5 2 4 1 5 3 3 1 5 6 6 5 5 4 5 4 5 4 5 6 9 9 9 9 8 7 6 6 6 6 6 5 7 9 10 8 9 10 9 9 9 9 10 11 12 12 11 11 12 12 12 13 14 14 15 15 15 14 13 15 16 16 16 16 16 16 16 17 16 15 15 16 17 18 18 19
1 0 1 1 2 1 1 3 4 3 2 2 3 5 2 1 3 4 5 5 1 1 1 1 2 3 4 5 3 8 7 9 8 4 5 6 7 5 4 5 6 7 7 8 8 9 7 6 6 7 6 6 6 5 5 8 10 8 10 9 10 9 9 9 10 10 11 12 11 11 11 11 10 11 12 13 13 12 12 12 14 15 16 17 17 17 17 17 17 15 15 16 17 17 18 19 20
1 1 2 0 2 0 4 2 2 7 1 2 3 5 4 0 2 2 0 3 2 2 0 1 2 1 2 5 5 9 12 9 7 6 6 7 6 4 4 4 5 5 5 6 8 7 8 7 6 6 6 6 6 5 6 5 8 9 9 9 9 10 10 10 10 10 11 12 12 11 11 10 10 9 12 10 12 13 12 10 12 13 16 17 17 17 17 17 16 15 17 18 18 18 18 18 18
1 3 0 3 2 1 2 1 2 1 1 3 1 4 3 2 1 1 0 1 5 1 2 1 0 3 3 2 5 14 10 9 8 8 6 5 6 4 3 3 4 3 4 5 6 6 7 7 8 7 7 7 7 7 6 6 7 10 9 9 9 9 10 11 12 11 11 11 11 11 10 7 6 6 7 7 10 8 11 12 12 13 15 16 17 17 17 16 15 16 17 18 18 17 15 16 17
2 1 3 1 3 1 2 1 3 2 6 5 4 4 5 3 0 0 1 3 1 1 4 1 8 7 3 4 8 12 11 11 9 11 7 6 5 5 4 4 4 5 5 5 5 6 7 5 6 8 7 8 7 7 6 5 5 7 7 7 6 6 7 9 9 8 8 8 11 9 7 6 5 5 6 7 6 7 9 12 11 13 15 14 16 17 17 16 16 16 16 17 16 14 12 9 9
2 1 2 4 1 1 1 1 2 4 2 7 5 4 6 5 6 1 2 1 1 1 1 3 5 4 6 7 8 11 11 10 10 9 10 10 9 9 8 6 5 5 6 5 6 7 6 6 5 6 8 8 8 7 6 6 7 6 6 7 6 7 7 8 7 8 6 7 7 7 7 6 5 5 6 6 6 8 9 11 12 12 12 13 14 16 16 17 16 16 15 14 13 13 9 7 7
2 2 2 2 3 1 3 3 2 2 8 6 4 4 1 1 4 1 2 3 2 5 4 1 4 3 6 6 6 8 9 10 9 10 10 9 8 9 8 8 8 9 8 7 7 6 7 7 6 5 6 8 8 6 6 7 7 6 6 6 6 6 6 6 8 8 7 7 7 7 7 6 6 5 8 11 9 6 7 10 12 13 12 12 14 10 13 14 16 14 12 11 8 6 6 7 7
2 3 2 2 1 2 3 2 2 2 6 6 6 2 4 3 4 4 3 3 3 5 6 9 10 10 11 9 9 8 9 10 9 8 8 8 6 6 9 11 12 11 8 5 5 7 8 8 7 6 6 6 8 7 7 7 7 6 6 6 7 7 6 6 6 7 7 8 7 7 7 7 6 6 6 6 7 6 6 5 6 6 6 6 7 6 5 6 6 6 6 7 6 6 7 6 7
2 1 2 1 0 3 2 1 3 4 3 7 3 6 3 1 2 2 5 4 5 7 7 9 9 13 13 12 11 7 9 11 11 10 11 12 13 11 8 6 3 3 4 7 9 7 8 8 8 7 6 6 7 7 7 6 8 7 7 7 7 7 7 7 6 7 8 8 7 7 7 8 8 7 6 6 6 7 7 5 6 6 7 6 5 6 5 5 6 6 6 7 6 6 6 6 6
2 0 1 3 0 3 1 1 4 4 2 4 3 1 1 3 1 3 5 6 2 4 4 6 7 12 17 13 12 9 9 11 12 13 12 11 10 9 10 9 9 9 8 10 8 8 8 8 9 8 8 8 8 7 7 7 7 7 7 7 8 7 7 7 7 7 8 9 7 7 8 8 8 8 7 6 7 7 7 6 6 6 8 7 6 6 6 5 6 6 7 7 6 7 7 7 7
3 2 1 2 4 3 1 1 3 3 8 1 1 1 1 1 2 0 3 5 6 4 3 4 4 8 11 13 13 15 15 14 15 15 14 16 16 16 13 12 10 7 6 7 9 9 9 11 9 9 9 9 8 8 8 7 7 7 8 8 8 8 8 8 7 7 8 8 8 7 7 8 9 8 8 7 7 6 7 7 6 6 7 7 6 6 6 6 6 6 7 7 8 7 7 6 7
3 0 0 1 2 0 0 1 1 2 2 1 4 1 2 4 2 0 4 8 6 4 3 6 8 11 10 11 12 10 9 9 10 10 6 5 7 6 5 6 7 8 10 9 8 10 11 11 10 10 8 10 8 8 8 7 7 7 7 8 8 8 8 8 8 8 7 8 8 8 8 8 8 9 9 9 8 7 7 7 7 6 6 7 7 5 7 7 7 6 6 7 7 7 6 6 7
0 2 3 1 1 1 1 1 0 0 0 2 0 1 3 3 1 4 8 7 7 5 4 7 8 9 10 12 13 12 11 13 12 9 13 11 6 7 9 8 9 11 13 11 9 9 9 10 11 11 10 10 9 8 7 7 8 8 8 9 8 8 7 8 8 8 7 7 7 8 9 9 9 9 10 9 10 9 8 8 8 8 7 6 6 6 6 7 7 7 6 7 8 6 6 6 7
1 4 3 5 3 2 0 1 0 0 1 1 0 2 1 1 2 7 2 8 5 5 6 5 9 9 9 9 10 11 12 13 14 13 6 5 7 9 10 9 8 12 10 11 10 9 9 11 10 10 10 8 8 9 8 8 8 9 8 8 8 8 8 7 8 8 8 8 8 8 9 9 9 9 9 10 8 9 8 8 8 8 8 7 5 6 6 7 7 8 8 7 7 7 6 5 7
5 5 4 3 1 1 0 1 1 1 1 1 2 2 1 1 1 8 6 2 5 8 6 6 6 7 8 9 10 9 10 11 10 7 13 11 11 11 11 12 12 9 11 13 11 9 10 12 11 10 10 9 9 9 8 7 8 8 8 7 8 8 8 7 7 8 8 8 9 9 8 9 8 8 9 10 10 9 9 8 8 8 9 8 6 7 7 7 8 8 8 7 5 6 7 5 6
5 5 1 1 1 0 2 3 2 1 1 0 0 1 5 1 5 15 4 2 4 7 7 7 7 6 7 7 8 7 11 10 8 9 12 13 12 11 14 13 13 11 9 12 11 10 13 12 11 11 10 9 10 10 9 8 7 7 8 8 7 8 7 8 7 7 7 7 9 10 9 9 9 9 8 11 12 10 10 10 8 8 8 8 7 9 9 9 9 8 8 8 7 6 7 6 4
2 2 3 2 2 3 6 1 1 3 1 1 0 2 7 7 10 11 3 5 3 5 6 6 6 5 6 6 7 8 7 6 8 12 12 11 11 12 13 12 11 11 9 7 9 12 10 8 9 9 10 11 11 9 9 8 8 7 7 7 7 8 7 7 7 7 7 7 8 10 10 10 9 9 9 9 9 10 10 10 10 8 7 8 8 9 10 9 9 9 9 8 7 6 8 7 6
3 1 3 1 1 2 4 3 2 3 1 1 2 2 8 7 10 8 5 7 8 6 6 6 5 5 5 6 6 8 9 10 13 13 11 11 10 10 13 10 10 10 7 8 13 13 11 11 9 9 11 11 10 10 9 10 7 7 7 7 7 8 7 7 6 6 7 7 7 8 10 10 10 10 10 9 8 8 9 9 10 9 8 8 8 8 9 9 10 11 10 10 8 7 7 6 7
0 3 2 2 2 3 2 1 5 4 1 1 3 1 9 9 10 6 2 3 5 5 5 4 4 5 6 6 7 8 9 10 10 10 12 12 10 10 11 12 11 10 12 12 11 10 11 11 11 10 11 12 12 11 9 9 8 7 7 7 7 7 7 8 7 7 7 7 7 7 9 9 10 10 9 10 10 9 9 9 9 8 9 8 8 8 9 10 9 9 9 11 10 8 8 7 5
2 3 1 1 1 2 2 0 1 6 2 1 4 6 4 3 1 2 3 3 4 4 5 6 7 7 7 7 7 7 7 7 8 9 10 11 10 11 11 12 12 14 12 10 12 11 11 11 12 12 13 13 12 10 8 7 7 7 6 7 7 7 7 7 7 7 7 8 8 8 9 9 9 10 10 10 9 10 9 9 8 9 9 9 9 8 8 8 11 10 9 9 10 11 9 9 6
2 0 3 3 2 1 2 3 1 1 3 2 1 2 6 7 9 6 4 1 2 3 6 7 7 7 8 7 7 9 9 9 12 12 13 11 11 12 12 12 13 12 11 12 12 13 14 11 12 12 11 11 10 10 9 8 7 7 6 7 7 8 8 7 7 7 8 7 7 9 10 10 11 10 10 10 9 10 9 9 8 10 9 8 9 9 9 8 7 9 11 8 9 10 9 10 8
4 2 1 5 1 6 4 2 1 2 1 2 1 4 9 12 12 11 8 5 5 7 8 9 9 8 8 7 7 9 10 11 15 12 12 11 10 10 10 10 10 11 11 12 11 10 8 9 9 10 10 9 9 8 7 6 5 4 3 4 6 7 7 7 7 7 7 6 7 7 8 8 10 11 11 11 10 9 9 9 9 10 10 9 9 9 9 8 8 7 8 9 8 7 9 9 9
4 7 5 2 1 2 1 2 1 1 1 3 5 9 9 9 11 11 10 6 8 11 9 7 8 8 8 8 8 8 9 13 13 7 8 9 10 10 10 9 9 9 9 10 11 10 10 9 8 8 9 9 7 7 7 7 6 7 7 2 4 7 7 8 7 8 7 7 7 6 5 6 8 10 11 11 10 10 9 9 10 10 10 10 10 10 10 10 12 11 9 10 10 9 7 8 9
4 3 3 1 3 1 1 0 1 1 1 5 8 8 8 10 10 12 11 9 6 6 8 9 9 9 9 9 10 11 10 14 9 8 8 10 11 11 9 8 8 7 7 9 10 11 12 13 12 13 10 9 9 9 9 9 9 7 5 9 9 7 8 8 8 7 7 7 7 6 6 5 7 8 10 11 10 11 10 10 10 10 9 11 12 14 15 14 12 12 12 9 13 11 9 9 7
3 3 3 3 1 0 1 0 2 3 1 3 2 4 11 11 10 11 9 7 11 9 9 10 12 12 10 11 12 12 13 5 3 4 6 6 7 7 6 7 7 9 8 9 12 13 12 11 13 13 8 10 11 12 11 10 10 12 12 11 9 7 8 9 8 7 8 6 6 6 5 5 7 8 7 8 9 10 9 9 10 10 10 9 9 7 10 11 11 10 11 9 5 11 10 11 10
3 2 2 2 2 1 0 1 2 1 1 8 3 6 14 12 10 10 9 12 13 9 11 12 11 10 9 10 12 13 8 9 4 6 5 7 8 7 7 7 8 12 11 11 10 7 6 8 9 8 9 10 10 10 9 11 8 6 7 5 8 5 2 3 4 3 4 6 5 5 5 6 6 7 9 9 9 9 9 9 9 10 11 10 8 8 8 10 11 14 15 15 11 5 6 9 12
4 3 2 3 2 1 3 2 1 1 3 3 2 7 15 15 6 11 12 11 10 7 6 9 7 9 11 12 13 12 12 9 7 8 8 6 6 7 5 6 9 6 6 6 7 10 8 8 7 7 8 8 7 7 8 5 4 2 2 3 4 4 5 4 3 3 4 4 7 6 5 6 6 7 8 9 8 9 10 10 9 10 10 11 11 11 11 11 11 10 9 10 15 13 10 11 10
1 3 2 0 1 0 3 1 1 2 2 1 5 5 10 7 4 6 6 3 6 9 6 7 8 8 11 9 8 9 11 7 7 7 6 4 5 8 11 10 6 8 8 10 9 10 9 11 10 10 9 9 7 7 7 5 5 4 4 4 4 4 4 4 4 4 6 5 4 6 7 5 6 5 6 9 10 10 9 10 10 10 11 10 10 11 13 14 14 14 14 11 13 15 13 9 10
1 2 5 4 3 4 1 2 3 7 3 2 3 6 5 6 6 6 9 6 9 4 1 7 10 9 8 10 14 9 4 5 8 9 9 8 8 6 5 5 7 7 8 9 8 8 7 7 8 8 7 7 8 8 9 8 8 8 7 7 7 6 7 7 12 13 9 8 9 4 4 5 6 5 6 7 8 9 10 10 10 11 11 11 10 11 12 11 12 12 12 12 13 10 15 13 11
1 3 2 3 5 5 4 1 3 2 1 2 2 1 10 6 13 11 8 9 13 10 6 10 9 10 7 11 11 5 6 7 5 3 1 4 5 5 5 7 8 8 8 5 5 7 7 8 9 9 9 8 7 8 9 8 8 7 9 9 7 9 9 7 4 3 6 4 4 6 5 4 5 7 6 6 7 8 9 10 11 12 12 11 11 10 11 14 14 15 13 12 13 11 8 12 14
2 1 1 4 4 3 2 4 3 4 2 4 1 3 4 10 16 5 10 9 8 8 12 13 12 10 11 8 5 5 7 6 5 5 5 5 7 10 11 10 8 10 7 6 7 7 9 9 8 8 7 8 7 8 9 9 10 8 8 7 7 7 8 7 5 4 4 5 5 6 5 5 5 6 7 7 7 8 9 9 10 10 11 11 11 11 13 13 13 12 14 14 12 11 14 14 13
2 1 5 4 6 4 4 4 2 0 3 8 4 0 2 6 10 7 2 7 5 9 12 12 12 11 7 5 8 7 6 5 5 5 5 6 8 8 7 8 9 6 6 9 9 8 8 7 8 7 9 8 7 9 10 9 9 9 9 8 8 6 5 5 4 3 5 6 7 5 6 6 6 5 6 7 7 8 8 9 9 10 10 11 11 11 11 12 15 15 14 12 11 10 11 10 11
2 2 4 5 6 5 4 2 2 3 2 8 2 3 3 10 6 6 2 1 8 9 10 10 8 8 7 5 4 2 1 1 1 3 3 5 6 6 7 6 6 9 8 7 6 6 6 6 8 9 9 8 8 9 10 10 9 9 9 9 9 7 5 4 5 6 6 6 8 7 7 7 6 5 6 6 6 7 8 8 9 10 11 11 11 12 12 13 13 13 15 14 12 12 9 9 11
4 6 7 5 7 3 3 5 2 3 4 7 7 8 5 9 4 6 4 4 4 5 5 4 4 2 3 0 4 6 5 4 3 1 1 0 2 5 5 7 7 5 5 5 6 6 6 7 8 9 9 8 8 10 10 11 10 10 10 10 10 9 7 7 7 7 6 6 8 7 7 7 6 6 6 6 6 7 8 8 9 10 9 10 11 11 12 13 13 13 12 13 14 15 12 11 9
5 2 4 4 2 6 3 3 5 1 8 4 2 6 4 7 5 6 6 5 5 2 1 4 2 1 2 4 4 5 5 5 5 4 3 1 1 0 3 5 5 5 5 5 6 6 6 6 7 8 7 8 8 9 10 10 10 10 9 10 10 10 9 8 10 10 9 10 9 8 6 6 6 6 6 6 7 7 7 8 7 9 9 9 11 10 10 11 11 11 10 11 10 11 10 10 9
5 7 7 5 2 3 3 2 2 5 7 0 3 3 2 16 5 4 6 8 1 1 4 3 1 1 3 3 5 5 3 2 4 4 2 2 4 5 5 5 4 5 7 7 8 7 7 7 8 9 8 8 9 9 10 10 10 10 10 10 9 9 9 9 9 8 8 9 8 8 8 8 6 7 7 8 8 9 8 8 9 9 9 9 10 11 12 12 11 11 11 12 11 12 12 12 10
6 8 6 5 1 1 4 4 2 4 6 4 1 1 6 4 5 9 10 10 4 4 1 2 3 4 5 6 5 5 4 5 5 4 5 5 7 7 5 5 5 5 6 8 7 7 6 6 7 9 9 8 8 9 10 10 10 10 9 9 9 9 9 9 8 8 9 9 8 9 9 9 9 10 9 10 9 9 8 9 10 10 11 11 11 12 11 11 11 12 13 13 13 12 11 12 12
9 4 10 9 8 6 5 3 5 7 6 2 4 2 8 3 4 2 3 5 5 4 10 5 2 2 3 4 4 4 4 4 3 4 6 8 10 7 5 5 5 6 7 7 6 6 5 6 7 9 8 8 9 10 8 10 10 9 8 8 9 8 9 9 8 8 8 10 9 10 9 8 9 9 10 9 8 10 10 9 9 10 9 9 10 10 9 10 10 10 10 12 11 10 12 12 11
1 3 6 4 9 5 3 5 3 2 1 1 2 6 4 4 3 6 4 5 11 9 8 7 11 8 4 5 7 5 4 4 5 5 7 8 7 5 5 6 7 7 7 6 6 6 6 7 7 9 10 9 9 9 10 11 10 9 9 10 10 10 9 8 8 7 8 9 10 10 10 9 8 8 8 9 10 10 11 10 9 9 7 8 9 10 10 10 10 9 9 10 11 7 11 12 11
4 5 7 7 5 4 1 2 0 2 3 9 2 8 8 6 8 12 18 16 8 6 8 7 9 10 9 7 6 6 4 4 5 6 7 8 6 5 7 7 7 7 7 8 8 7 8 8 9 9 8 7 9 10 10 9 9 9 10 10 9 9 10 10 10 10 10 9 9 9 9 9 9 8 8 8 9 9 10 10 10 10 9 7 7 8 9 10 10 10 9 10 10 8 9 11 9
7 4 7 1 2 4 3 5 2 1 6 8 3 11 9 4 14 3 5 6 1 1 4 5 7 7 6 8 7 6 7 4 3 5 6 6 6 6 7 6 7 8 8 7 8 7 8 9 9 10 9 10 9 9 9 9 10 10 10 11 11 11 11 10 9 10 9 9 9 8 7 8 9 8 7 7 8 9 9 10 10 10 9 8 9 9 9 9 10 9 10 11 10 11 10 8 9
5 5 3 7 4 3 2 4 4 2 2 6 4 4 9 9 15 1 4 6 8 7 5 2 5 6 7 7 7 6 6 5 1 4 5 6 6 6 6 7 7 6 6 7 7 8 8 7 7 8 11 10 10 8 8 8 9 9 9 10 11 10 10 9 8 8 8 10 10 9 9 9 8 8 7 7 8 8 8 9 9 9 9 10 8 9 9 9 10 9 8 8 7 8 9 10 8
0 2 2 1 3 3 5 8 4 6 6 0 9 2 12 7 4 9 8 4 7 8 8 6 9 9 7 6 4 5 6 5 1 3 4 5 6 6 6 7 7 8 6 6 6 6 8 8 8 8 6 6 6 8 9 10 10 9 8 7 8 9 9 9 9 9 10 11 10 10 10 9 10 8 8 8 8 9 9 10 9 8 8 7 8 8 8 8 7 9 10 9 9 10 10 11 9
3 2 3 1 0 2 3 0 5 5 3 4 4 9 10 6 8 6 6 8 9 7 6 4 6 5 4 3 4 4 4 2 3 4 4 5 5 4 5 5 6 4 3 4 5 7 7 6 7 7 9 9 9 10 9 10 8 9 8 10 10 9 10 9 9 10 11 10 10 10 10 9 7 9 8 9 9 10 10 10 10 10 10 9 8 8 7 7 7 8 8 10 10 11 12 10 9
12 13 11 12 8 3 3 9 1 2 3 4 2 14 13 8 7 9 10 8 4 5 5 5 1 3 1 0 2 3 2 5 4 4 5 5 4 3 3 3 3 4 3 5 5 5 5 7 8 8 8 9 9 9 9 8 8 8 10 10 10 8 9 9 10 10 11 10 10 10 9 7 9 8 9 10 10 9 10 11 10 10 10 9 9 8 8 7 9 9 9 7 10 11 10 10 9
Wind_Direction
334 332 323 290 118 100 65 9 58 306 66 118 172 53 207 99 160 80 108 29 50 270 125 79 51 25 95 151 127 118 18 123 220 133 210 188 143 136 145 138 139 139 142 145 148 141 137 158 128 125 128 127 123 121 118 115 113 115 115 108 107 103 97 92 88 84 82 81 82 83 82 81 80 79 81 87 89 87 89 93 87 78 76 79 84 86 81 81 80 80 80 82 82 80 72 69 63
321 341 322 305 247 75 291 132 100 357 43 54 6 91 173 110 46 132 135 130 184 152 143 103 96 100 97 122 133 100 19 10 340 137 70 119 118 126 138 137 144 144 144 148 148 141 144 133 127 130 130 129 125 122 120 119 120 119 114 110 110 104 99 96 91 88 84 84 84 84 84 82 81 79 79 85 91 96 93 86 87 89 89 87 84 83 85 84 83 83 83 83 81 76 71 64 60
334 3 353 31 17 93 259 47 310 109 88 74 275 198 32 71 112 153 142 123 138 137 108 86 77 59 54 96 33 90 240 349 84 70 102 158 123 148 145 145 145 141 144 150 143 141 136 138 136 134 133 130 127 125 124 122 120 121 117 115 110 106 103 99 96 93 90 88 88 88 87 86 84 83 81 84 85 86 92 95 99 103 92 85 83 84 85 85 84 82 81 83 82 75 66 59 54
332 134 108 27 320 23 65 25 102 115 103 199 66 314 93 131 140 135 150 146 153 124 101 75 70 252 98 64 120 78 111 171 134 135 136 162 169 152 145 143 141 138 140 144 138 135 137 140 137 135 134 130 129 128 127 125 127 125 118 115 113 111 108 103 100 98 96 94 92 92 91 90 88 87 84 83 93 91 74 71 70 71 83 89 88 84 84 85 85 83 84 89 82 73 62 57 51
5 352 125 84 106 343 99 208 131 100 81 205 172 245 130 141 145 129 121 160 62 124 98 125 79 337 138 108 148 103 198 98 101 38 113 159 164 160 135 138 136 139 144 137 132 130 134 137 133 131 133 132 130 132 131 132 130 125 121 119 117 114 111 108 103 101 100 99 97 96 96 95 93 90 88 86 89 90 88 86 89 84 81 85 84 85 83 83 81 81 83 89 82 68 59 53 51
335 1 208 125 198 185 45 31 3 75 211 150 109 155 166 156 133 144 133 75 27 62 98 83 159 176 24 7 31 121 134 125 189 79 132 177 161 159 137 128 132 136 131 126 128 130 132 128 129 132 133 134 134 132 133 134 130 127 124 122 121 118 115 112 108 104 102 100 99 99 98 97 97 95 94 92 84 85 99 108 102 96 90 86 86 86 86 84 83 82 87 91 81 62 56 53 52
319 28 1 24 336 60 147 115 126 129 343 125 145 149 157 153 139 121 118 64 352 27 23 117 97 89 80 213 41 58 281 187 124 165 133 164 143 135 129 123 120 119 126 125 126 130 134 132 136 133 131 135 134 132 134 132 134 130 129 127 124 122 119 116 112 108 104 103 101 100 100 98 95 95 94 92 90 88 86 83 78 82 87 83 83 83 82 84 86 88 93 89 77 62 56 55 55
227 103 258 95 290 59 17 121 183 152 354 84 137 131 151 141 137 117 171 97 211 106 321 59 97 100 97 82 129 306 19 28 130 133 117 122 125 136 139 122 125 126 124 128 130 133 139 139 138 134 135 134 135 139 138 138 136 135 135 132 129 125 123 118 114 110 107 105 104 103 101 100 97 96 96 93 92 92 88 84 85 81 84 85 88 93 95 93 90 88 92 91 73 64 60 56 58
341 121 325 65 341 26 61 137 135 237 112 36 78 141 149 150 151 130 157 187 114 131 162 147 162 84 190 56 74 160 52 83 107 116 117 120 135 155 154 151 139 127 126 129 130 134 135 135 135 140 138 138 141 143 142 140 140 140 138 136 132 128 124 121 118 114 111 109 107 106 105 103 103 101 100 99 98 94 90 92 92 88 87 93 94 93 93 92 92 92 94 84 70 66 60 56 56
319 109 302 166 123 349 20 5 74 194 143 170 130 155 150 156 144 140 147 114 161 115 223 189 139 130 131 94 117 141 162 156 118 98 121 136 153 144 150 153 149 128 130 135 137 135 135 134 131 135 139 142 144 146 145 145 143 142 140 137 136 132 128 127 124 120 117 114 111 109 109 108 106 106 103 103 102 101 102 98 94 94 91 92 92 92 92 95 95 95 96 81 74 65 59 58 60
293 2 153 55 32 342 137 213 129 85 109 179 76 167 165 151 138 150 144 143 141 142 214 128 34 134 103 103 170 271 148 144 131 151 164 158 153 146 119 132 142 135 138 140 137 132 133 133 131 132 139 141 145 147 148 149 146 145 144 142 139 137 135 134 131 126 121 117 115 114 114 113 112 110 109 107 103 102 104 101 99 99 101 101 101 101 100 97 93 96 94 81 74 66 64 65 66
329 352 20 112 213 189 249 144 156 154 99 92 185 178 187 130 107 101 129 117 158 141 170 139 210 140 74 125 187 143 141 140 153 155 163 157 161 153 134 87 122 134 139 140 134 136 134 132 128 129 126 129 141 149 150 153 150 147 147 146 142 145 142 140 137 132 127 124 121 119 118 118 117 114 113 111 110 109 106 106 107 106 105 105 103 104 103 101 101 100 94 83 75 73 70 69 70
212 109 83 97 236 135 181 110 197 132 126 192 167 230 106 102 143 157 171 135 153 133 241 225 173 89 97 106 199 144 149 183 167 161 158 152 140 114 113 80 107 132 133 135 136 139 142 137 134 136 134 132 133 141 146 152 152 148 149 148 144 145 146 144 142 138 132 128 126 125 122 120 120 119 118 117 114 113 111 112 113 113 113 113 111 110 109 106 105 106 97 84 78 72 68 68 70
133 185 115 244 268 168 126 161 85 112 259 245 239 175 122 132 245 182 121 130 169 145 228 221 90 109 100 80 133 180 187 171 154 154 125 123 95 83 91 96 96 124 133 137 140 145 146 146 141 140 141 137 133 135 146 153 158 152 151 147 144 144 146 147 146 143 137 127 122 121 121 122 124 123 121 119 118 116 116 116 116 115 115 115 114 111 110 109 110 106 91 85 76 69 69 72 73
268 113 82 136 327 53 245 98 186 133 219 149 214 140 153 97 99 48 122 125 267 232 293 87 167 86 226 132 250 197 169 166 148 139 116 98 85 80 84 92 102 117 127 136 144 148 154 150 147 146 150 147 148 143 143 152 157 157 151 150 149 147 143 142 147 140 128 124 123 124 122 118 118 120 119 118 117 117 117 116 117 117 117 117 116 115 114 113 113 101 91 80 72 71 75 76 74
177 71 83 49 289 103 278 102 107 99 214 158 216 110 84 330 50 86 247 153 191 317 69 196 16 178 166 162 212 159 149 147 142 126 116 96 88 80 81 85 99 115 129 138 143 153 158 156 157 157 158 157 156 150 147 138 154 156 156 153 151 151 146 139 139 135 130 129 122 114 111 111 109 108 111 115 119 116 113 116 116 117 119 119 118 117 115 115 110 100 91 83 76 71 68 69 73
49 81 1 29 305 100 264 146 118 240 224 190 198 146 143 193 313 100 334 61 110 208 33 359 43 36 150 195 137 126 138 132 117 121 117 108 109 101 78 97 114 120 130 153 154 158 153 155 164 162 168 162 160 155 152 148 159 157 154 154 148 148 144 139 140 134 126 122 118 117 112 108 112 113 110 112 108 114 117 116 119 120 119 119 118 117 117 116 110 103 96 90 83 75 66 64 65
60 128 115 289 203 49 250 226 189 177 131 196 179 181 113 144 307 220 70 32 71 34 106 32 32 39 58 85 108 125 138 134 135 136 148 147 142 138 147 175 157 174 164 158 166 167 162 168 160 165 168 167 164 158 159 157 151 160 154 154 144 136 127 131 136 141 136 133 130 125 123 123 122 117 118 116 114 116 118 120 117 118 117 116 118 118 119 116 110 105 98 91 80 74 70 68 65
118 165 104 211 207 283 333 293 159 110 187 170 195 169 143 204 140 235 127 260 152 81 126 73 64 37 64 85 118 131 141 145 146 153 159 164 171 172 175 179 184 171 185 175 173 170 173 176 177 161 168 169 164 161 158 157 156 158 154 155 149 147 143 147 136 144 145 144 143 135 134 135 130 129 126 126 123 119 120 118 116 114 114 116 119 119 119 116 111 105 96 77 73 72 69 70 70
224 111 188 244 196 156 22 16 351 307 143 152 173 192 155 214 137 124 179 200 155 182 167 41 135 170 164 151 145 147 153 158 161 163 171 176 178 176 173 185 190 195 190 182 170 170 169 183 187 172 163 164 163 162 153 158 165 161 159 157 154 152 151 154 151 154 154 157 152 144 142 135 131 125 121 117 114 114 114 112 114 114 115 117 117 116 116 115 113 97 66 66 64 64 72 70 72
265 79 170 214 217 134 315 8 326 336 136 153 164 91 108 182 158 145 185 100 251 242 211 171 200 179 182 174 164 162 163 167 172 175 177 183 188 191 192 189 189 189 186 164 161 180 181 178 183 183 171 167 163 164 155 164 165 165 163 160 160 158 157 160 161 160 161 165 160 152 150 137 131 130 133 132 127 125 122 121 118 117 116 110 108 105 104 98 74 71 74 67 70 71 74 70 75
88 197 191 204 51 64 267 323 360 4 100 109 114 109 179 103 92 181 139 172 220 212 227 212 196 174 163 173 180 169 174 175 181 181 189 187 187 190 193 206 215 174 156 178 195 184 185 180 179 182 176 178 174 167 166 162 162 174 168 167 165 167 165 168 167 166 165 171 169 157 144 139 140 142 144 142 133 134 133 136 132 130 126 123 126 118 113 100 83 87 89 84 79 78 77 78 71
165 338 40 20 127 135 278 14 329 49 61 88 91 177 103 138 192 232 151 190 234 224 169 178 197 174 179 161 152 170 178 187 189 193 190 191 198 198 194 191 185 192 186 195 189 196 188 185 179 174 181 179 182 174 165 162 177 177 172 169 169 174 172 171 175 172 170 173 172 164 153 152 150 149 148 149 146 144 144 146 144 145 139 140 147 136 129 106 109 100 95 95 94 89 82 82 80
106 186 117 10 88 104 201 154 16 56 89 92 193 69 125 158 190 269 210 236 213 204 214 145 129 130 127 148 174 175 183 185 198 201 192 193 190 195 190 185 193 191 189 195 192 192 190 193 187 176 182 176 181 179 173 175 180 177 178 171 177 175 172 177 178 178 172 175 176 170 164 155 155 156 157 157 158 154 152 151 150 150 148 150 155 147 129 122 114 111 108 102 98 93 94 87 88
138 106 222 177 64 171 109 113 65 63 97 123 74 113 215 169 190 83 240 236 233 219 175 108 114 129 147 153 176 186 190 198 207 210 217 228 214 202 195 189 181 182 198 199 192 188 193 189 184 187 181 179 177 178 179 179 182 180 176 176 180 171 179 177 177 178 180 179 173 169 168 159 163 161 160 163 159 161 157 154 154 160 160 159 159 145 132 123 116 117 110 107 103 103 101 97 96
144 187 137 83 103 142 150 63 30 91 145 59 61 282 291 235 226 250 229 233 224 177 129 130 127 136 158 174 179 182 192 197 202 196 208 206 195 187 208 196 186 189 198 195 188 195 186 183 185 190 184 181 178 178 178 177 184 186 183 180 178 173 183 176 172 178 185 183 178 171 172 168 169 170 168 164 163 167 166 162 160 163 167 173 158 142 139 128 128 119 110 104 104 109 106 107 103
159 115 121 132 178 111 279 120 233 239 103 61 104 315 338 286 66 276 285 231 208 144 166 165 144 163 178 181 187 192 189 199 197 202 195 195 203 199 207 204 190 200 189 195 193 189 182 180 186 188 188 180 176 184 180 181 181 189 184 180 176 180 177 175 178 180 181 187 184 178 178 176 173 176 169 166 169 167 167 166 169 167 167 178 156 142 136 128 126 123 116 120 125 120 112 115 110
104 125 79 93 186 146 249 90 207 71 332 64 110 276 231 300 92 243 223 276 172 180 184 183 170 175 185 190 189 199 201 206 201 174 192 189 201 203 201 201 204 192 189 197 192 179 177 186 183 185 186 184 180 189 184 184 185 186 179 174 179 182 175 179 181 180 185 183 181 183 181 177 176 180 174 168 169 172 169 172 172 173 172 170 145 143 131 123 122 119 113 105 111 115 112 108 111
152 105 81 276 0 34 263 168 224 94 284 282 183 10 301 142 216 240 232 255 144 176 187 186 192 196 195 195 197 199 208 207 192 193 202 201 200 198 202 203 198 192 201 189 181 174 184 185 185 188 184 186 188 191 194 192 181 182 179 178 172 170 177 175 182 184 184 179 178 180 183 181 177 181 183 176 173 175 171 170 175 180 173 162 148 140 129 126 125 124 114 120 121 121 111 102 97
109 44 130 32 14 323 255 222 98 101 262 337 7 292 268 258 242 271 249 193 137 153 185 196 204 205 206 203 206 216 224 208 201 205 206 204 199 198 205 205 200 195 187 186 173 183 183 183 185 186 190 189 191 191 195 196 190 180 181 177 172 172 175 174 181 181 182 183 179 181 182 185 184 186 183 183 177 175 173 171 172 174 172 155 147 143 140 140 137 133 132 125 126 129 124 120 115
140 229 64 139 61 269 299 181 186 131 287 15 80 213 283 277 280 268 286 180 159 191 210 217 221 219 218 217 217 219 225 207 207 209 211 206 200 199 203 200 197 192 170 184 189 184 176 181 179 189 189 192 190 192 191 198 194 184 176 179 179 176 177 181 178 177 181 185 182 186 185 183 187 185 183 178 182 178 174 172 172 171 163 155 152 153 142 141 143 143 142 132 132 126 124 123 124
91 57 300 323 140 278 312 48 160 166 286 68 86 299 252 279 280 297 333 145 149 189 226 255 256 244 233 227 225 226 226 220 223 210 209 206 198 200 199 201 194 189 187 188 189 178 181 181 182 184 186 192 194 194 191 186 186 184 168 174 178 182 179 183 183 184 182 180 185 189 190 184 186 186 180 181 180 180 176 174 173 161 158 151 149 148 147 148 147 142 145 141 139 143 137 128 125
3 115 259 284 113 242 350 298 197 171 126 348 162 226 328 310 314 321 344 104 147 182 228 234 230 235 241 238 228 227 236 249 242 224 214 205 205 199 199 197 194 195 191 179 182 183 183 183 184 183 186 190 190 191 186 182 181 187 176 169 178 182 185 187 185 181 183 185 187 192 192 187 188 186 184 180 179 178 175 173 165 159 156 153 147 147 150 152 149 146 147 146 145 144 141 128 123
301 12 202 207 178 210 256 298 309 83 105 225 300 229 240 256 278 285 302 174 173 215 243 246 242 235 231 221 225 227 222 224 228 221 221 207 202 201 199 196 195 193 193 188 184 181 186 182 185 188 186 185 185 185 183 180 184 185 190 169 176 184 191 186 183 177 185 186 186 195 192 189 187 187 185 181 177 175 171 168 160 159 158 153 150 152 153 150 146 150 147 152 147 144 141 137 131
207 209 253 301 281 170 203 161 263 126 26 206 314 261 265 268 273 278 253 244 211 229 233 239 237 238 242 239 224 223 220 221 232 221 212 211 206 202 199 198 195 192 191 191 186 186 177 181 182 187 181 179 180 175 176 173 170 178 175 169 176 188 190 189 179 185 183 180 181 194 194 189 189 184 183 180 173 168 168 164 162 162 160 158 155 153 146 149 145 146 151 144 141 140 140 135 132
178 172 176 170 158 272 296 253 311 129 182 244 249 247 260 258 271 275 281 250 222 232 239 254 256 249 245 238 237 228 221 229 234 221 213 209 206 197 196 192 194 194 193 188 187 183 181 180 185 182 186 177 162 164 162 171 173 184 183 170 185 197 189 187 192 187 178 183 178 180 190 189 186 184 181 175 170 168 165 165 164 164 165 160 159 156 157 158 159 153 156 152 140 127 118 128 134
118 91 113 160 157 305 307 315 279 345 9 240 237 259 261 270 264 268 270 276 256 244 242 238 242 243 242 244 242 239 234 232 231 216 205 206 206 202 195 182 185 185 185 187 188 190 187 186 179 191 189 173 167 171 178 177 183 188 194 197 198 185 186 183 187 190 189 186 176 171 182 185 177 176 175 170 169 168 167 163 162 168 168 170 169 173 170 169 167 160 150 150 143 135 134 141 149
124 111 58 335 96 194 270 220 321 332 118 290 295 288 271 260 262 261 268 287 267 231 228 234 233 233 235 237 244 244 241 264 260 235 231 219 213 203 186 180 168 173 199 186 192 197 194 185 188 192 177 184 186 185 185 187 191 194 190 196 186 175 174 179 189 191 192 184 178 173 174 188 181 171 166 161 158 163 163 161 162 167 166 175 181 165 156 153 151 149 145 130 144 145 149 160 164
49 123 138 54 311 193 290 333 332 285 82 263 339 326 284 273 263 260 248 248 253 230 215 228 224 235 239 241 245 252 257 251 259 250 232 213 204 192 184 188 191 193 185 188 191 184 191 193 200 189 188 188 195 188 180 194 195 192 188 181 174 159 173 161 151 166 164 174 177 174 175 179 193 180 170 163 161 164 164 163 168 167 172 164 150 149 153 156 162 162 163 153 148 154 141 168 180
103 69 67 199 240 95 290 289 339 254 169 270 10 323 288 285 257 251 246 237 255 260 239 247 225 231 236 238 234 240 248 251 237 229 227 214 192 185 180 191 197 183 175 184 182 187 188 190 193 193 195 196 192 192 192 186 162 133 101 126 139 132 168 144 116 124 155 164 188 181 189 182 195 189 177 167 163 166 166 173 168 173 174 170 163 157 165 165 163 168 169 166 151 151 167 179 205
339 126 129 170 286 330 163 249 303 310 335 42 337 293 289 298 346 328 298 277 256 272 268 274 259 236 239 252 267 242 243 237 238 242 246 196 174 190 194 195 175 186 190 191 187 187 192 192 191 188 190 192 188 178 179 156 134 118 85 61 76 76 66 133 136 184 189 187 173 187 201 186 184 185 180 177 168 171 173 175 174 174 170 174 170 165 168 174 175 173 169 163 177 162 163 171 197
332 245 177 192 146 122 11 4 37 15 342 324 51 347 293 294 295 256 281 327 313 285 296 260 253 247 247 251 247 255 252 218 213 219 213 197 194 193 190 180 189 199 199 201 194 192 184 186 183 187 187 186 183 179 174 166 174 168 155 155 165 177 187 181 198 199 187 190 196 156 152 189 183 177 181 183 176 169 176 178 175 173 174 173 175 174 171 165 167 168 179 174 177 189 163 162 177
79 266 163 168 134 123 97 20 59 336 240 288 73 118 280 309 291 282 287 286 274 287 274 260 256 253 242 236 243 252 239 255 255 270 218 179 211 190 201 197 199 199 209 190 190 194 192 187 188 187 186 184 176 177 173 170 176 181 184 188 188 193 197 221 220 190 186 186 137 174 176 183 189 177 183 185 177 177 177 180 180 177 175 178 176 172 171 173 175 179 178 180 182 166 161 167 175
219 244 170 110 100 102 131 100 111 229 243 302 18 138 223 303 287 274 257 258 277 291 277 266 257 250 241 245 266 239 235 237 231 229 206 207 197 192 198 201 197 204 194 184 196 196 194 192 183 185 181 180 178 173 177 178 180 181 185 190 188 196 202 206 194 184 161 153 168 176 171 190 192 188 179 183 184 179 180 182 184 180 177 179 174 181 182 180 176 179 182 184 176 177 172 171 178
213 217 153 132 132 150 114 94 134 235 29 285 327 353 305 233 274 291 299 288 271 258 260 263 258 256 257 242 235 233 228 223 204 224 213 200 201 208 203 198 208 196 189 194 195 197 193 187 182 178 184 181 174 173 174 183 181 180 186 186 196 205 189 185 170 154 161 168 178 176 181 188 194 193 185 183 184 183 183 184 185 184 182 180 179 181 181 179 180 177 180 182 187 186 188 185 172
258 160 85 73 70 64 101 98 74 335 49 267 206 178 236 273 240 279 321 285 281 259 256 259 266 273 272 254 250 236 192 154 221 227 229 209 208 203 203 197 187 202 199 197 197 188 190 181 183 181 187 181 176 174 176 179 179 176 186 194 197 193 173 162 164 171 173 174 187 185 187 188 191 189 188 187 184 186 185 185 189 190 188 182 183 183 181 180 182 183 182 181 183 186 191 187 182
122 71 67 26 33 34 21 67 88 42 273 254 204 203 168 289 253 210 188 225 211 272 306 286 310 334 351 78 161 152 147 149 125 81 12 318 277 216 176 187 204 200 200 192 194 195 189 185 184 186 188 179 179 178 177 182 183 184 191 192 195 189 182 170 173 184 175 181 192 190 192 193 188 190 186 190 188 186 188 189 191 192 191 186 184 184 185 180 181 184 186 187 185 185 188 188 187
110 95 116 50 341 13 27 344 38 152 264 267 274 213 155 225 291 281 233 264 234 178 349 312 341 2 109 147 184 188 184 173 174 155 180 233 65 137 177 196 197 200 186 197 201 194 191 190 182 187 187 185 184 180 181 185 185 192 195 192 195 193 184 185 188 188 187 189 192 192 189 187 195 189 189 187 193 192 189 192 192 190 192 188 191 183 181 185 180 179 178 181 187 194 191 188 181
79 88 67 124 248 33 300 21 254 211 225 251 325 195 28 247 217 261 279 284 250 110 13 64 188 198 211 217 219 217 214 188 182 201 202 228 213 211 205 203 188 194 197 197 199 195 192 186 185 186 195 188 188 180 185 186 189 194 194 195 198 195 198 194 194 196 188 192 189 188 184 196 187 191 197 194 200 190 189 187 190 191 192 194 194 188 184 184 179 178 181 181 186 187 188 186 182
113 141 143 118 154 135 240 263 237 297 292 266 334 21 249 280 304 240 250 263 270 303 193 214 182 199 220 232 237 233 222 197 203 198 211 218 225 228 220 196 200 204 207 203 199 195 192 189 189 193 197 187 186 187 188 187 196 195 194 194 195 195 206 203 202 200 192 194 188 190 192 193 193 199 191 202 194 189 193 198 195 197 196 192 191 195 188 185 183 183 180 183 185 189 183 187 186
203 122 157 177 150 166 211 187 207 221 220 286 281 90 234 103 245 271 239 245 273 297 317 281 214 205 260 265 263 247 231 229 212 210 210 222 231 225 219 210 209 214 212 209 202 197 188 194 189 197 195 196 189 192 188 194 197 198 196 196 196 196 203 205 209 205 193 193 192 190 194 194 197 198 196 200 189 192 195 197 201 200 199 196 192 191 184 178 180 185 184 185 184 183 184 182 185
250 166 84 105 220 128 175 203 157 238 320 326 224 216 186 172 271 273 252 294 283 287 305 309 300 292 276 254 247 237 238 230 214 214 235 244 243 233 222 220 219 214 213 209 204 195 194 199 198 203 201 195 193 191 197 195 199 197 197 200 203 201 203 204 205 199 198 192 193 193 193 197 203 198 199 191 195 191 193 197 199 202 196 194 193 188 181 177 179 183 187 182 181 181 182 182 182
230 118 209 206 181 122 90 5 304 97 35 256 157 300 270 296 267 235 247 253 277 309 266 269 269 267 263 256 272 276 169 206 205 215 226 241 246 234 223 218 218 216 211 209 204 197 197 197 201 206 207 200 198 199 196 197 197 196 206 207 205 207 206 206 205 202 195 192 194 196 193 198 200 201 195 190 189 194 196 197 196 198 192 189 189 190 182 180 178 179 178 177 179 179 178 184 176
100 191 236 210 86 119 147 215 342 112 209 266 121 241 287 60 286 354 39 74 179 275 272 238 249 255 268 267 276 286 319 290 225 225 232 240 243 237 228 226 220 214 208 205 207 202 204 204 202 203 204 206 206 197 198 195 196 202 205 208 210 208 208 209 206 202 192 188 193 194 195 193 199 198 192 187 184 188 195 197 198 197 196 188 189 187 184 179 172 175 178 181 182 170 173 175 183
148 191 203 124 253 264 300 95 245 232 277 274 274 254 266 208 248 78 319 325 319 309 291 328 280 272 254 264 279 310 297 301 276 230 244 251 247 244 228 223 224 222 215 208 206 203 207 209 209 206 209 209 203 197 198 202 201 203 205 208 211 213 212 209 206 197 190 194 192 191 193 196 192 190 182 177 181 186 187 193 196 196 193 194 190 187 181 174 171 167 168 167 160 168 166 172 181
47 65 124 172 103 163 142 200 173 123 242 71 280 129 262 193 224 136 228 248 261 266 279 256 233 236 236 240 272 283 288 287 286 278 259 251 253 243 232 223 212 205 207 213 212 213 214 211 207 214 219 212 206 202 197 204 205 205 205 203 214 217 216 212 202 196 197 198 194 191 191 190 194 184 188 177 181 181 181 183 188 186 187 189 187 182 174 172 170 170 166 166 170 168 171 173 175
207 140 223 211 9 223 114 258 146 169 186 190 269 294 255 252 165 164 196 226 235 234 240 268 257 271 284 254 238 251 256 270 258 244 255 261 256 256 253 247 226 178 197 207 212 218 222 215 215 210 210 211 210 209 202 209 200 211 204 203 204 207 216 214 210 204 203 200 194 192 193 191 178 191 176 180 181 181 182 186 184 187 186 182 184 184 182 169 174 171 172 173 169 173 172 175 168
180 179 197 184 137 145 162 260 35 118 159 236 149 262 279 259 174 164 195 217 213 211 146 83 87 136 206 294 263 229 227 246 265 287 279 282 277 272 280 274 233 132 191 214 226 224 228 223 218 213 215 216 212 213 210 207 204 205 207 207 206 206 209 211 214 211 208 201 194 193 188 180 192 187 179 183 184 181 183 183 185 189 188 186 188 185 182 176 176 172 173 173 174 175 176 171 171